Weather History for Southend-On-Sea, United Kingdom

Change the Weather History Date:

Sunday, July 5, 2009

  Actual Average Record
Temperature  
Mean Temperature 68 °F -  
Max Temperature 75 °F 70 °F 78 °F (2001)
Min Temperature 62 °F 55 °F 48 °F (2011)
Cooling Degree Days 4    
Growing Degree Days 18 (Base 50)    
Moisture  
Dew Point 54 °F    
Average Humidity 61    
Maximum Humidity 82    
Minimum Humidity 43    
Precipitation  
Precipitation 0.00 in - - ()
Sea Level Pressure  
Sea Level Pressure 29.83 in    
Wind  
Wind Speed 7 mph ()    
Max Wind Speed 20 mph    
Max Gust Speed -    
Visibility 6.1 miles    
Events Rain    
Averages and records for this station are not official NWS values.
T = Trace of Precipitation, MM = Missing Value Source: Averaged Metar Reports

Daily Weather History Graph

Daily Weather History Graph

Search for Another Location

Airport:

Trip Planner

Search our weather history database for the weather conditions in past years. The results will help you decide how hot, cold, wet, or windy it might be!

Date:

Astronomy

Jul. 05, 2009 Rise Set
Actual Time 4:47 AM BST 9:16 PM BST
Civil Twilight 4:00 AM BST 10:02 PM BST
Nautical Twilight 2:49 AM BST 11:13 PM BST
Astronomical Twilight 1:34 AM BST 12:29 AM BST
Moon 8:21 PM BST (7/5) 2:33 AM BST (7/5)
Length of Visible Light 18h 02m
Length of Day
16h 29m
Waxing Gibbous, 97% of the Moon is Illuminated
Jul 5
Waxing Gibbous
Jul 7
Full
Jul 15
Last Quarter
Jul 22
New
Jul 28
First Quarter

Hourly Weather History & Observations

Time (BST) Temp. Dew Point Humidity Pressure Visibility Wind Dir Wind Speed Gust Speed Precip Events Conditions
12:50 AM 66.2 °F 55.4 °F 68% 29.86 in - SW 3.5 mph - N/A   Clear
1:50 AM 66.2 °F 53.6 °F 64% 29.86 in - West 4.6 mph - N/A   Clear
2:20 AM 62.6 °F 55.4 °F 77% 29.86 in - NNW 2.3 mph - N/A   Clear
2:50 AM 64.4 °F 55.4 °F 73% 29.86 in - West 6.9 mph - N/A   Clear
3:50 AM 64.4 °F 57.2 °F 77% 29.86 in 6.2 mi SW 5.8 mph - N/A Rain Light Rain
4:50 AM 62.6 °F 57.2 °F 82% 29.86 in 5.0 mi SSW 5.8 mph - N/A Rain Light Rain
5:50 AM 62.6 °F 57.2 °F 82% 29.83 in - South 2.3 mph - N/A   Clear
6:50 AM 62.6 °F 55.4 °F 77% 29.86 in - SSW 2.3 mph - N/A   Clear
7:50 AM 66.2 °F 57.2 °F 73% 29.86 in - SW 3.5 mph - N/A   Clear
8:20 AM 66.2 °F 57.2 °F 73% 29.86 in - SW 5.8 mph - N/A   Clear
8:50 AM 66.2 °F 57.2 °F 73% 29.86 in - WSW 4.6 mph - N/A   Clear
9:20 AM 68.0 °F 55.4 °F 64% 29.86 in 6.2 mi WSW 4.6 mph - N/A   Partly Cloudy
9:50 AM 69.8 °F 55.4 °F 60% 29.86 in 6.2 mi West 9.2 mph - N/A   Partly Cloudy
10:20 AM 69.8 °F 53.6 °F 56% 29.86 in 6.2 mi SW 9.2 mph - N/A   Partly Cloudy
10:50 AM 69.8 °F 53.6 °F 56% 29.86 in 6.2 mi SW 11.5 mph - N/A   Partly Cloudy
11:20 AM 71.6 °F 55.4 °F 57% 29.83 in 6.2 mi WSW 8.1 mph - N/A   Scattered Clouds
11:50 AM 71.6 °F 55.4 °F 57% 29.83 in 6.2 mi South 8.1 mph - N/A   Scattered Clouds
12:50 PM 71.6 °F 53.6 °F 53% 29.83 in 6.2 mi SW 10.4 mph - N/A   Scattered Clouds
1:20 PM 73.4 °F 51.8 °F 47% 29.83 in 6.2 mi SSW 9.2 mph - N/A   Partly Cloudy
1:50 PM 71.6 °F 53.6 °F 53% 29.83 in 6.2 mi South 11.5 mph - N/A   Partly Cloudy
2:20 PM 73.4 °F 55.4 °F 53% 29.80 in 6.2 mi SSW 9.2 mph - N/A   Partly Cloudy
2:50 PM 75.2 °F 51.8 °F 44% 29.80 in 6.2 mi SSW 12.7 mph - N/A   Partly Cloudy
3:20 PM 75.2 °F 53.6 °F 47% 29.80 in 6.2 mi SSW 15.0 mph - N/A   Partly Cloudy
3:50 PM 75.2 °F 51.8 °F 44% 29.80 in 6.2 mi SW 15.0 mph - N/A   Partly Cloudy
4:50 PM - - N/A% 29.77 in 6.2 mi SW 19.6 mph - N/A   Partly Cloudy
5:50 PM 73.4 °F 50.0 °F 44% 29.77 in 6.2 mi SSW 17.3 mph - N/A   Partly Cloudy
6:50 PM 71.6 °F 48.2 °F 43% 29.77 in - SW 18.4 mph - N/A   Clear
7:50 PM 69.8 °F 46.4 °F 43% 29.77 in - SSW 13.8 mph - N/A   Clear
8:50 PM 66.2 °F 50.0 °F 56% 29.77 in - SW 12.7 mph - N/A   Clear
9:50 PM 64.4 °F 50.0 °F 59% 29.77 in - SSW 10.4 mph - N/A   Clear
10:50 PM 64.4 °F 51.8 °F 64% 29.77 in - SW 17.3 mph - N/A   Clear
11:50 PM 62.6 °F 51.8 °F 68% 29.80 in - SW 16.1 mph - N/A   Clear